Regional Weather Roundup
Issued by NWS Goodland, KS

Home | Current Version | Previous Version | Graphics & Text | Print | Product List | Glossary On
Versions: 1 2 3 4 5 6 7 8 9 10 11 12 13 14 15 16 17 18 19 20 21 22 23 24 25 26 27 28 29 30 31 32 33 34 35 36 37 38 39 40 41 42 43 44 45 46 47 48 49 50
986
ASUS43 KGLD 011259
RWRGLD

GOODLAND FORECAST AREA HOURLY WEATHER ROUNDUP
NATIONAL WEATHER SERVICE GOODLAND KS
700 AM MDT SUN MAY 01 2016

...OFFICIAL OBSERVATIONS...

CITY           SKY/WX    TMP DP  RH WIND       PRES   REMARKS
GOODLAND KS    MIX PCPN  35  33  92 N17G25    30.17R FOG
HILL CITY KS   CLOUDY    40  37  89 NW15      30.12R
IMPERIAL NEB   CLOUDY    37  34  89 N17G26    30.19R
MCCOOK NEB     CLOUDY    38  35  89 N20       30.14R
AKRON CO       CLOUDY    33  31  92 N16       30.26R
BURLINGTON CO  LGT SNOW  34  31  88 N23G31    30.18R FOG
LIMON CO       CLOUDY    31  30  96 N25       30.22R WCI  17
$$

...UNOFFICIAL OBSERVATIONS...

CITY           SKY/WX    TMP DP  RH WIND       PRES   REMARKS
COLBY KS       DRIZZLE   37  37 100 NW14G21   30.17R
LENORA KS        N/A     38  32  79 MISG        N/A
NORTON KS      CLOUDY    37  34  87 NW17      30.10R
SHARON SPRINGS   N/A     36  34  91 N21         N/A
TRIBUNE KS     CLOUDY    37  34  87 NW20G28   30.18R
KIT CARSON CO    N/A     34  31  89 MISG        N/A
YUMA CO          N/A     34  32  93 N9          N/A
$$




USA.gov is the U.S. government's official web portal to all federal, state and local government web resources and services.